Regional Weather Roundup
Issued by NWS

Home | Current Version | Previous Version | Graphics & Text | Print | Product List | Glossary On
Versions: 1 2 3 4 5 6 7 8 9 10 11 12 13 14 15 16 17 18 19 20 21 22 23 24 25 26 27 28 29 30 31 32 33 34 35 36 37 38 39 40 41 42 43 44 45 46 47 48 49 50
000
ASUS43 KLOT 310003
RWRIL

ILLINOIS REGIONAL WEATHER ROUNDUP
NATIONAL WEATHER SERVICE CHICAGO/ROMEOVILLE IL
700 PM CDT THU MAR 30 2017

NOTE: "FAIR" INDICATES FEW OR NO CLOUDS BELOW 12,000 FEET WITH NO
SIGNIFICANT WEATHER AND/OR OBSTRUCTIONS TO VISIBILITY.

* THESE STATIONS ARE NOT UNDER NWS QUALITY CONTROL. THEY ALSO MAY NOT
  REPORT WEATHER SUCH AS PRECIPITATION OR FOG.

ILZ001-002-007-009-015-016-024-310100-
NORTHWEST ILLINOIS

CITY           SKY/WX    TMP DP  RH WIND       PRES   REMARKS
MOLINE         LGT RAIN  43  40  89 N9        29.60S FOG
6HR MIN TEMP:  43; 6HR MAX TEMP:  46; 6HR PCP:  0.08;

STERLING*      CLOUDY    44  42  93 NE9       29.61R
SAVANNA*       DRIZZLE   41  40  95 NE13      29.62F
$$

ILZ003-004-008-010-011-017-018-310100-
NORTH CENTRAL ILLINOIS

CITY           SKY/WX    TMP DP  RH WIND       PRES   REMARKS
ROCKFORD       CLOUDY    42  39  89 NE15G24   29.65S
6HR MIN TEMP:  42; 6HR MAX TEMP:  45; 6HR PCP:  0.35;

FREEPORT*      LGT RAIN  40  39  98 NE16G23   29.66F
ROCHELLE*      CLOUDY    42  41  97 NE22      29.62R
DE KALB*       CLOUDY    41  40  97 NE17G23   29.63R FOG
PERU*          CLOUDY    44  42  95 NE18      29.57F FOG
$$

ILZ005-006-012>014-019>023-310100-
NORTHEAST ILLINOIS

CITY           SKY/WX    TMP DP  RH WIND       PRES   REMARKS
CHICAGO-OHARE  CLOUDY    42  40  92 NE15      29.63R FOG
6HR MIN TEMP:  42; 6HR MAX TEMP:  45; 6HR PCP:  0.37;

CHICAGO-MIDWAY CLOUDY    45  43  93 NE14      29.62R
6HR MIN TEMP:  43; 6HR MAX TEMP:  46; 6HR PCP:  0.49;

AURORA         CLOUDY    43  41  93 NE16      29.61S FOG
6HR MIN TEMP:  43; 6HR MAX TEMP:  48; 6HR PCP:  0.21;

LANSING*       CLOUDY    46  46 100 NE6       29.61S FOG
JOLIET*        CLOUDY    47  46  97 NE10      29.60F FOG
WAUKEGAN       CLOUDY    39  38  96 NE14G21   29.66F WCI  31
6HR MIN TEMP:  39; 6HR MAX TEMP:  40; 6HR PCP:  0.43;

DUPAGE AIRPORT CLOUDY    42  42 100 NE13      29.62R FOG
6HR MIN TEMP:  42; 6HR MAX TEMP:  45; 6HR PCP:  0.43;

WHEELING       CLOUDY    40  40 100 NE12      29.67R
6HR MIN TEMP:  40; 6HR MAX TEMP:  42; 6HR PCP:  0.40;

MORRIS*        CLOUDY    46  45  96 NE8       29.57F FOG
NORTHERLY ISL    N/A     40  39  97 N9          N/A
$$

LMZ740>746-310100-
SOUTHERN LAKE MICHIGAN

STATION/POSITION SKY/WX   TEMP    WIND        PRES    VSBY  WAVE
                          AIR SEA DIR/SP/G                  HT/PER
                          (F)     (DEG/KT/KT) (MB)    (MI)  (FT/S)
HARRISON CRIB              41      20/ 14/ 16   N/A
BURNHAM HARBOR             40     350/  9/ 11   N/A
CALUMET HARBOR             41      30/ 10/ 12 1002.5R
BURNS HARBOR               47      80/  8/ 12 1003.0
MICHIGAN CITY              47      80/ 10/ 12   N/A
$$

ILZ025>027-034>036-040-047-049-050-058-095>099-310100-
WEST-CENTRAL ILLINOIS

CITY           SKY/WX    TMP DP  RH WIND       PRES   REMARKS
QUINCY         LGT RAIN  50  49  96 NW9       29.58R FOG
GALESBURG*     CLOUDY    44  44 100 N12       29.57R FOG
MACOMB*        LGT RAIN  45  45 100 N8        29.60R
JACKSONVILLE*  DRIZZLE   52  50  93 SW12G18   29.56R
PITTSFIELD*    DRIZZLE   52  50  94 W10       29.58R
$$

ILZ028>032-037-038-041>044-048-051>054-059>061-310100-
CENTRAL ILLINOIS

CITY           SKY/WX    TMP DP  RH WIND       PRES   REMARKS
PONTIAC        CLOUDY    52  52  99 NE17      29.52S FOG
BLOOMINGTON    MOCLDY    56  55  97 E6        29.52R
DECATUR        CLOUDY    58  57  97 S8        29.54R
PEORIA         CLOUDY    50  49  96 NE10      29.55R FOG
6HR MIN TEMP:  50; 6HR MAX TEMP:  54; 6HR PCP:  0.09;

LACON*         CLOUDY    47  47 100 NE7G16    29.56R FOG
LINCOLN*       PTCLDY    59  57  92 CALM      29.52R
SPRINGFIELD    LGT RAIN  55  53  93 W23G32    29.53R FOG
6HR MIN TEMP:  55; 6HR MAX TEMP:  66; 6HR PCP:  0.29;

TAYLORVILLE    CLOUDY    57  54  89 W8        29.55R
6HR MIN TEMP:  55; 6HR MAX TEMP:  65; 6HR PCP:  0.37;

$$

ILZ033-039-045-046-055>057-062-063-310100-
EAST-CENTRAL ILLINOIS

CITY           SKY/WX    TMP DP  RH WIND       PRES   REMARKS
CHAMPAIGN      CLOUDY    57  54  89 SE12      29.54R
RANTOUL*       MOCLDY    57  56  96 CALM      29.52S
MATTOON        MOCLDY    58  56  93 S8        29.56R
PARIS*         CLOUDY    55  55  98 E7        29.57F
$$

ILZ079-100>102-310100-
SOUTHWEST ILLINOIS

CITY           SKY/WX    TMP DP  RH WIND       PRES   REMARKS
ALTON          PTCLDY    57  46  67 W12G17    29.57R
BELLEVILLE     CLOUDY    59  48  68 W10       29.56R
CAHOKIA*       PTCLDY    58  45  62 W9        29.58R
SPARTA*        CLOUDY    57  47  67 W9        29.58R
$$

ILZ064>066-069>071-074>076-080>082-084>086-088>090-092>094-310100-
SOUTH-CENTRAL ILLINOIS

CITY           SKY/WX    TMP DP  RH WIND       PRES   REMARKS
CARBONDALE     MOCLDY    63  48  58 SW16G23   29.56R
6HR MIN TEMP:  63; 6HR MAX TEMP:  72; 6HR PCP:  0.02;

CAIRO*         CLEAR     60  46  61 SW17G25   29.61R
EFFINGHAM*     CLOUDY    59  58  96 W6        29.58R
MT. VERNON     CLOUDY    58  55  90 VRB7      29.57R
CENTRALIA*     LGT RAIN  58  57  96 W7        29.57R
SALEM*         LGT RAIN  59  57  91 W6        29.57R
$$

ILZ067-068-072-073-078-083-087-091-310100-
SOUTHEAST ILLINOIS

CITY           SKY/WX    TMP DP  RH WIND       PRES   REMARKS
LAWRENCEVILLE  CLOUDY    60  58  92 S12       29.55F
FLORA*         CLOUDY    62  58  84 NE3       29.55R
FAIRFIELD*     CLEAR     64  59  85 S5        29.53R
HARRISBURG*    CLEAR     64  51  62 SW10      29.58R
ROBINSON*      CLOUDY    60  57  92 S3        29.57F
CARMI*         PTCLDY    63  59  88 SW9       29.56R
$$

ABBREVIATIONS USED IN REMARKS
   TC - TEMPERATURE IN CELSIUS
  WCI - WIND CHILL INDEX
   HX - HEAT INDEX
  VSB - VISIBILITY
$$





USA.gov is the U.S. government's official web portal to all federal, state and local government web resources and services.